GW5123 Weather Reports


time (UTC)temp
C
wind
direction
speed
KPH
gust
KPH
rain 1hr
cm
rain 24hr
cm
rain mn
cm
humidity
%
barometer
mb
20260510104413 7 279 0.0 0.0 0.00 0.00 0.00 99 1013.8
20260510103909 7 256 0.0 0.0 0.00 0.00 0.00 99 1013.9
20260510103407 7 273 0.0 0.0 0.00 0.00 0.00 99 1013.8
20260510102902 7 260 0.0 0.0 0.00 0.00 0.00 99 1013.8
20260510102358 7 259 0.0 0.0 0.00 0.00 0.00 99 1013.9
20260510101856 7 258 0.0 0.0 0.00 0.00 0.00 99 1013.7
20260510101354 7 293 0.0 0.0 0.00 0.00 0.00 99 1013.6
20260510100850 7 268 0.0 0.0 0.00 0.00 0.00 99 1013.5
20260510100347 7 279 0.0 0.0 0.00 0.00 0.00 99 1013.4
20260510095844 7 305 0.0 0.0 0.00 0.00 0.00 99 1013.4
20260510095338 7 279 0.0 0.0 0.00 0.00 0.00 99 1013.3
20260510094838 7 265 0.0 0.0 0.00 0.00 0.00 99 1013.3
20260510094334 7 265 0.0 0.0 0.00 0.00 0.00 99 1013.3
20260510093830 7 257 0.0 0.0 0.00 0.00 0.00 99 1013.3
20260510093326 7 262 0.0 0.0 0.00 0.00 0.00 99 1013.4
20260510092822 7 268 0.0 0.0 0.00 0.00 0.00 99 1013.3
20260510092318 7 269 0.0 0.0 0.00 0.00 0.00 99 1013.2
20260510091814 7 266 0.0 0.0 0.00 0.00 0.00 99 1013.1
20260510091312 7 258 0.0 0.0 0.00 0.00 0.00 99 1013.1
20260510090808 7 258 0.0 1.6 0.00 0.00 0.00 99 1013.1
20260510090305 6 290 0.0 0.0 0.00 0.00 0.00 99 1013.0
20260510085801 7 325 0.0 0.0 0.00 0.00 0.00 99 1013.0
20260510085301 6 290 0.0 0.0 0.00 0.00 0.00 99 1013.0
20260510084757 7 267 1.6 1.6 0.00 0.00 0.00 99 1013.1
20260510084254 6 18 0.0 1.6 0.00 0.00 0.00 99 1013.1
20260510083750 7 271 1.6 3.2 0.00 0.00 0.00 99 1012.9
20260510083248 6 263 0.0 1.6 0.00 0.00 0.00 98 1012.9
20260510082743 7 2 0.0 0.0 0.00 0.00 0.00 99 1013.0
20260510082240 7 281 0.0 0.0 0.00 0.00 0.00 98 1013.1
20260510081739 7 8 0.0 0.0 0.00 0.00 0.00 98 1013.1
20260510081235 7 266 0.0 0.0 0.00 0.00 0.00 98 1013.0
20260510080730 7 260 0.0 0.0 0.00 0.00 0.00 99 1012.8
20260510080226 7 307 0.0 0.0 0.00 0.00 0.00 98 1012.9
20260510075723 7 303 0.0 0.0 0.00 0.00 0.00 98 1012.7
20260510075221 7 264 0.0 0.0 0.00 0.00 0.00 98 1012.7
20260510074718 7 350 0.0 0.0 0.00 0.00 0.00 98 1012.5
20260510074214 7 292 0.0 0.0 0.00 0.00 0.00 98 1012.7
20260510073711 7 306 0.0 0.0 0.00 0.00 0.00 97 1012.7
20260510073206 7 315 0.0 0.0 0.00 0.00 0.00 97 1012.7
20260510072703 7 309 0.0 0.0 0.00 0.00 0.00 97 1012.7
20260510072159 7 300 0.0 0.0 0.00 0.00 0.00 97 1012.5
20260510071656 8 266 0.0 0.0 0.00 0.00 0.00 96 1012.7
20260510071153 8 303 0.0 0.0 0.00 0.00 0.00 97 1012.8
20260510070650 7 317 0.0 0.0 0.00 0.00 0.00 97 1012.5
20260510070148 8 264 0.0 0.0 0.00 0.00 0.00 97 1012.5
20260510065643 8 267 0.0 0.0 0.00 0.00 0.00 96 1012.7
20260510065139 8 265 0.0 0.0 0.00 0.00 0.00 96 1012.5
20260510064636 8 265 0.0 0.0 0.00 0.00 0.00 96 1012.5
20260510064133 8 282 0.0 0.0 0.00 0.00 0.00 95 1012.8
20260510063630 8 276 0.0 0.0 0.00 0.00 0.00 96 1012.5
20260510063126 8 270 0.0 0.0 0.00 0.00 0.00 96 1012.5
20260510062622 8 295 0.0 0.0 0.00 0.00 0.00 96 1012.7
20260510062118 8 298 0.0 0.0 0.00 0.00 0.00 95 1012.7
20260510061614 8 293 0.0 0.0 0.00 0.00 0.00 95 1012.7
20260510061112 8 300 0.0 0.0 0.00 0.00 0.00 95 1012.7
20260510060608 8 328 0.0 0.0 0.00 0.00 0.00 95 1012.5
20260510060104 8 308 0.0 0.0 0.00 0.00 0.00 95 1012.7
20260510055600 8 286 0.0 0.0 0.00 0.00 0.00 95 1012.8
20260510055059 8 301 0.0 0.0 0.00 0.00 0.00 95 1012.7
20260510054554 8 289 0.0 0.0 0.00 0.00 0.00 95 1012.7
20260510054049 8 290 0.0 0.0 0.00 0.00 0.00 95 1012.5
20260510053549 8 279 0.0 0.0 0.00 0.00 0.00 95 1012.7
20260510053046 8 23 0.0 0.0 0.00 0.00 0.00 95 1012.7
20260510052542 8 254 0.0 0.0 0.00 0.00 0.00 94 1012.5
20260510052038 8 235 0.0 0.0 0.00 0.00 0.00 95 1012.9
20260510051534 8 263 0.0 0.0 0.00 0.00 0.00 94 1013.2
20260510051031 8 263 0.0 0.0 0.00 0.00 0.00 94 1013.0
20260510050528 8 271 0.0 0.0 0.00 0.00 0.00 93 1012.9
20260510050026 8 269 0.0 0.0 0.00 0.00 0.00 93 1013.1
20260510045523 8 260 0.0 0.0 0.00 0.00 0.00 94 1013.1
20260510045018 8 282 0.0 0.0 0.00 0.00 0.00 93 1013.3
20260510044515 8 282 0.0 0.0 0.00 0.00 0.00 93 1013.1
20260510044013 8 302 0.0 0.0 0.00 0.00 0.00 93 1013.0
20260510043514 9 252 0.0 0.0 0.00 0.00 0.00 92 1013.1
20260510043009 9 263 0.0 0.0 0.00 0.00 0.00 92 1013.0
20260510042503 8 274 0.0 0.0 0.00 0.00 0.00 92 1013.0
20260510041958 9 306 0.0 0.0 0.00 0.00 0.00 92 1013.0
20260510041456 8 277 0.0 0.0 0.00 0.00 0.00 93 1013.1
20260510040954 8 260 0.0 0.0 0.00 0.00 0.00 92 1013.1
20260510040450 9 256 0.0 0.0 0.00 0.00 0.00 92 1012.8
20260510035946 9 168 0.0 0.0 0.00 0.00 0.00 90 1012.7
20260510035442 9 105 0.0 0.0 0.00 0.00 0.00 90 1012.8
20260510034942 9 53 0.0 0.0 0.00 0.00 0.00 90 1012.5
20260510034441 9 287 0.0 0.0 0.00 0.00 0.00 90 1012.5
20260510033937 9 325 0.0 0.0 0.00 0.00 0.00 90 1012.7
20260510033433 9 323 0.0 0.0 0.00 0.00 0.00 90 1012.3
20260510032931 10 278 0.0 0.0 0.00 0.00 0.00 89 1012.5
20260510032428 10 310 0.0 0.0 0.00 0.00 0.00 88 1012.3
20260510031928 10 284 0.0 0.0 0.00 0.00 0.00 87 1012.5
20260510031423 10 306 0.0 0.0 0.00 0.00 0.00 87 1012.7
20260510030919 10 275 0.0 0.0 0.00 0.00 0.00 86 1012.4
20260510030415 10 281 0.0 0.0 0.00 0.00 0.00 87 1012.2
20260510025913 10 291 0.0 0.0 0.00 0.00 0.00 87 1012.3
20260510025410 10 298 0.0 0.0 0.00 0.00 0.00 86 1012.3
20260510024907 10 308 0.0 0.0 0.00 0.00 0.00 86 1012.3
20260510024403 10 261 0.0 0.0 0.00 0.00 0.00 86 1012.3
20260510023859 10 304 0.0 0.0 0.00 0.00 0.00 85 1012.3
20260510023356 10 267 0.0 0.0 0.00 0.00 0.00 85 1012.2
20260510022853 10 268 0.0 0.0 0.00 0.00 0.00 84 1012.2
20260510022352 11 279 0.0 0.0 0.00 0.00 0.00 84 1012.2
20260510021851 11 299 0.0 0.0 0.00 0.00 0.00 84 1012.1
20260510021350 11 277 0.0 0.0 0.00 0.00 0.00 83 1012.2
20260510020846 11 303 0.0 0.0 0.00 0.00 0.00 82 1012.1
20260510020346 11 285 0.0 0.0 0.00 0.00 0.00 82 1012.2
20260510015842 11 294 0.0 0.0 0.00 0.00 0.00 81 1012.0
20260510015338 11 267 0.0 0.0 0.00 0.00 0.00 80 1011.9
20260510014833 11 280 0.0 0.0 0.00 0.00 0.00 80 1011.8
20260510014331 12 245 0.0 0.0 0.00 0.00 0.00 79 1011.6
20260510013827 12 252 0.0 0.0 0.00 0.00 0.00 78 1011.4
20260510013322 12 231 0.0 0.0 0.00 0.00 0.00 76 1011.4
20260510012818 12 222 0.0 0.0 0.00 0.00 0.00 76 1011.3
20260510012317 13 227 0.0 0.0 0.00 0.00 0.00 74 1011.3
20260510011812 13 28 0.0 0.0 0.00 0.00 0.00 73 1011.3
20260510011308 13 243 0.0 0.0 0.00 0.00 0.00 73 1011.0
20260510010805 13 206 0.0 1.6 0.00 0.00 0.00 72 1011.0
20260510010302 13 191 0.0 0.0 0.00 0.00 0.00 72 1011.2
20260509145943 14 247 0.0 3.2 0.00 0.00 0.00 67 1010.4
20260509145442 14 247 0.0 3.2 0.00 0.00 0.00 67 1010.4
20260509144938 14 247 0.0 3.2 0.00 0.00 0.00 67 1010.4
20260509144435 14 26 4.8 4.8 0.00 0.00 0.00 66 1010.5
20260509143932 14 117 3.2 6.4 0.00 0.00 0.00 65 1010.5
20260509142920 14 88 1.6 3.2 0.00 0.00 0.00 66 1010.3
20260509142417 14 88 1.6 3.2 0.00 0.00 0.00 66 1010.3
20260509141912 14 358 4.8 9.7 0.00 0.00 0.00 63 1010.1
20260509141410 14 8 6.4 16.1 0.00 0.00 0.00 64 1010.2
20260509140906 14 118 8.0 9.7 0.00 0.00 0.00 63 1010.2
20260509140403 14 105 6.4 6.4 0.00 0.00 0.00 63 1010.1
20260509135901 15 24 4.8 14.5 0.00 0.00 0.00 60 1009.9
20260509135358 15 91 4.8 9.7 0.00 0.00 0.00 61 1010.0
20260509134855 15 68 3.2 4.8 0.00 0.00 0.00 62 1009.8
20260509134353 15 92 3.2 9.7 0.00 0.00 0.00 61 1010.0
20260509133849 15 78 1.6 4.8 0.00 0.00 0.00 60 1009.8
20260509133346 15 341 1.6 14.5 0.00 0.00 0.00 60 1010.0
20260509132845 15 353 1.6 9.7 0.00 0.00 0.00 63 1009.9
20260509132343 15 340 3.2 3.2 0.00 0.00 0.00 62 1009.8
20260509131839 15 44 3.2 9.7 0.00 0.00 0.00 60 1010.0
20260509131336 15 66 4.8 11.3 0.00 0.00 0.00 60 1010.0
20260509130833 14 65 1.6 9.7 0.00 0.00 0.00 60 1010.2
20260509130328 14 8 6.4 11.3 0.00 0.00 0.00 60 1010.4
20260509125825 15 71 1.6 12.9 0.00 0.00 0.00 61 1010.2
20260509125321 14 38 1.6 11.3 0.00 0.00 0.00 60 1010.2
20260509124818 14 122 1.6 3.2 0.00 0.00 0.00 64 1010.3
20260509124314 14 279 0.0 4.8 0.00 0.00 0.00 62 1010.3
20260509123813 13 12 3.2 11.3 0.00 0.00 0.00 62 1010.2
20260509123310 13 196 0.0 6.4 0.00 0.00 0.00 68 1010.3
20260509122805 13 344 3.2 9.7 0.00 0.00 0.00 68 1010.5
20260509122305 12 181 0.0 3.2 0.00 0.00 0.00 72 1010.4
20260509121759 12 194 1.6 3.2 0.00 0.00 0.00 67 1010.3
20260509121256 11 247 0.0 0.0 0.00 0.00 0.00 73 1010.6
20260509120755 11 218 0.0 0.0 0.00 0.00 0.00 74 1010.5
20260509120252 10 257 0.0 0.0 0.00 0.00 0.00 77 1010.5
20260509115751 10 264 0.0 0.0 0.00 0.00 0.00 74 1010.5
20260509115247 10 246 0.0 0.0 0.00 0.00 0.00 73 1010.5
20260509114745 10 255 0.0 0.0 0.00 0.00 0.00 72 1010.4
20260509114244 10 207 0.0 0.0 0.00 0.00 0.00 73 1010.5
20260509113742 10 275 0.0 0.0 0.00 0.00 0.00 71 1010.3
20260509113239 10 275 1.6 4.8 0.00 0.00 0.00 71 1010.5
20260509112736 10 282 0.0 0.0 0.00 0.00 0.00 73 1010.4
20260509112233 9 252 0.0 0.0 0.00 0.00 0.00 74 1010.4
20260509111730 9 231 0.0 0.0 0.00 0.00 0.00 76 1010.3
20260509111226 8 207 0.0 0.0 0.00 0.00 0.00 76 1010.4
20260509110724 8 236 0.0 0.0 0.00 0.00 0.00 79 1010.5
20260509110220 8 295 0.0 0.0 0.00 0.00 0.00 78 1010.4
20260509105719 8 228 0.0 0.0 0.00 0.00 0.00 78 1010.5
20260509105216 8 266 0.0 0.0 0.00 0.00 0.00 81 1010.4
20260509104713 8 256 0.0 0.0 0.00 0.00 0.00 78 1010.5